Temperature
4 4 4 5 5 5 5 5 5 4 5 5 5 5 5 6 6 6 6 6 6 6 6 6 6 6 6 6 6 6 6 6 6 6 6 6 5 5
4 4 4 4 4 4 4 4 5 4 4 4 5 5 5 5 5 5 5 6 6 6 6 6 6 5 5 5 5 5 5 5 5 5 5 5 5 5
3 4 4 4 4 4 4 4 4 4 4 4 4 4 4 5 5 5 5 5 6 6 5 5 5 5 5 5 5 5 5 5 5 5 5 5 4 4
3 3 3 3 3 3 3 3 3 3 3 3 4 4 4 4 4 4 5 5 5 5 5 5 5 5 5 4 4 4 4 4 4 4 4 4 4 4
2 3 3 3 3 3 3 3 3 3 3 3 3 3 3 4 4 4 4 4 4 4 4 4 4 4 4 4 4 4 4 4 4 4 4 4 4 4
2 2 2 2 2 2 2 2 2 2 2 2 2 3 3 3 3 3 3 4 4 4 4 4 4 4 4 4 4 4 3 3 3 3 4 3 3 3
1 1 2 2 2 2 2 2 2 2 2 2 2 2 2 2 2 2 2 3 3 3 3 3 3 3 3 3 3 3 3 3 3 3 3 3 3 3
1 1 1 1 1 1 1 1 1 1 1 1 1 1 1 2 2 2 2 2 2 2 2 2 2 3 3 3 2 2 2 2 2 2 3 3 3 3
0 0 1 1 1 1 1 1 1 1 1 1 1 1 1 1 1 1 1 1 1 1 1 2 2 2 2 2 2 2 2 2 2 2 2 2 2 2
-0 -0 0 0 0 0 0 0 0 0 1 1 1 1 1 1 1 1 1 1 1 1 1 1 1 1 2 2 2 1 1 2 2 2 2 2 2 2
-1 -1 -0 -0 -0 -0 -0 -0 0 0 0 0 0 0 0 0 0 0 0 0 0 1 1 0 0 1 1 1 1 1 1 1 1 1 2 1 1 1
-1 -1 -1 -1 -1 -1 -1 -1 -0 -0 -0 -0 -0 0 -0 0 0 0 0 0 0 0 0 -0 0 -0 -0 0 1 1 1 1 1 1 1 1 1 1
-2 -2 -1 -1 -1 -1 -1 -1 -1 -1 -1 -1 -0 -0 -1 -0 -0 -0 -0 -0 -0 -0 0 -0 -0 -0 -1 -1 0 0 0 1 1 1 1 1 1 1
-2 -2 -2 -2 -2 -2 -2 -1 -1 -1 -1 -1 -1 -1 -1 -1 -1 -1 -1 -0 -0 -0 -0 -0 -0 -1 -1 -1 -1 -0 -0 0 0 0 1 1 1 1
-3 -2 -2 -2 -2 -2 -2 -2 -2 -2 -1 -1 -1 -1 -1 -1 -1 -1 -1 -1 -1 -1 -1 -0 -1 -1 -1 -1 -1 -1 -0 -0 -0 0 0 0 0 0
-3 -3 -3 -2 -2 -2 -2 -2 -2 -2 -2 -2 -2 -1 -1 -1 -1 -1 -1 -1 -1 -1 -1 -1 -1 -1 -1 -1 -1 -1 -1 -1 -1 -0 -0 -0 -0 -0
-3 -3 -3 -3 -3 -3 -3 -2 -2 -2 -2 -2 -2 -2 -2 -1 -1 -1 -1 -1 -1 -1 -1 -1 -1 -1 -1 -1 -1 -1 -1 -1 -1 -1 -1 -1 -1 -1
-3 -3 -3 -3 -3 -3 -3 -3 -3 -2 -2 -2 -2 -2 -2 -2 -2 -2 -2 -1 -1 -1 -1 -2 -2 -1 -1 -2 -1 -1 -1 -1 -1 -1 -1 -1 -1 -1
-3 -3 -4 -4 -4 -4 -3 -3 -3 -3 -3 -2 -2 -2 -2 -2 -2 -2 -2 -2 -2 -2 -2 -2 -2 -2 -2 -2 -2 -2 -2 -1 -1 -1 -1 -1 -1 -1
-4 -4 -4 -4 -4 -4 -4 -3 -3 -3 -3 -3 -3 -3 -3 -2 -2 -2 -2 -2 -2 -2 -2 -2 -2 -2 -2 -2 -2 -2 -2 -2 -2 -1 -1 -1 -1 -1
-4 -4 -4 -4 -4 -4 -4 -4 -3 -3 -3 -3 -3 -3 -3 -3 -3 -3 -3 -3 -3 -2 -2 -2 -2 -2 -2 -2 -2 -2 -2 -2 -2 -2 -2 -2 -2 -2
-4 -4 -4 -4 -4 -4 -4 -4 -4 -3 -3 -3 -3 -3 -3 -3 -3 -3 -3 -3 -3 -3 -3 -3 -2 -2 -2 -2 -2 -2 -2 -2 -2 -2 -2 -2 -2 -2
-5 -4 -4 -4 -4 -4 -4 -4 -4 -4 -4 -4 -4 -4 -3 -3 -3 -3 -3 -3 -3 -3 -3 -3 -3 -3 -3 -2 -2 -2 -2 -2 -2 -2 -2 -2 -2 -2
Wind_Speed
5 5 5 4 4 4 4 4 4 5 6 4 3 4 4 5 6 6 7 8 8 9 9 8 8 8 8 8 9 9 9 9 9 9 9 9 9 9
4 4 4 3 4 3 3 4 4 5 6 4 4 3 3 4 6 6 7 8 8 8 9 8 8 8 8 8 8 8 8 9 8 8 9 9 9 9
3 3 4 4 3 3 3 4 4 4 7 5 3 2 3 4 4 5 5 5 7 8 9 9 9 8 8 7 7 8 8 7 7 8 9 9 9 9
4 4 4 3 4 3 3 4 4 4 5 6 4 3 3 4 3 3 3 5 5 8 8 8 7 6 6 6 6 6 6 6 6 7 8 8 9 8
4 4 4 4 4 4 4 3 3 4 4 5 5 3 3 2 2 3 3 3 4 5 5 5 5 5 5 5 5 5 4 5 5 6 7 7 7 7
4 4 4 4 5 5 4 4 3 3 3 4 5 3 3 2 2 2 2 2 2 3 4 4 4 5 5 4 4 4 4 4 5 6 6 6 6 6
4 4 4 5 6 5 4 4 3 3 3 4 4 3 3 2 2 1 2 2 2 1 1 2 2 2 3 4 4 4 4 4 5 5 6 5 5 6
3 4 4 4 5 6 6 5 4 4 4 4 4 5 4 3 2 2 1 1 2 0 0 2 1 2 2 2 3 3 4 4 4 4 4 4 5 5
3 3 4 3 4 3 4 4 4 5 6 5 5 6 5 4 3 3 2 2 3 2 1 2 2 3 3 3 3 3 3 4 4 4 4 4 5 5
3 3 2 3 3 3 2 2 3 4 5 4 4 5 4 3 4 4 3 2 2 2 1 2 1 2 2 2 3 3 3 4 3 3 3 3 4 4
3 3 3 2 3 3 2 2 3 4 3 3 4 4 4 4 3 3 3 2 2 1 1 1 1 1 2 2 2 3 3 3 3 3 3 3 4 4
3 3 4 3 3 3 2 2 3 3 2 2 2 3 3 2 3 3 4 3 2 1 1 1 1 1 1 1 1 2 2 3 3 3 3 3 3 2
3 3 3 4 4 4 3 3 4 3 2 2 2 2 2 2 2 2 3 4 3 2 2 1 1 0 1 2 2 1 1 1 2 2 3 3 3 2
3 3 3 4 5 5 4 3 4 3 2 2 2 2 2 2 1 1 1 2 3 3 3 2 2 2 1 1 2 1 1 1 1 2 2 3 3 4
3 4 5 5 5 4 4 5 4 2 1 1 2 2 2 2 1 1 0 1 1 2 3 3 3 3 2 2 1 1 1 2 2 1 1 1 1 2
3 4 5 5 4 4 4 4 3 1 1 1 1 1 0 1 1 1 0 0 1 1 1 1 2 3 2 2 2 2 2 2 1 1 1 1 2 1
3 2 3 3 3 3 3 3 3 2 2 1 1 1 0 0 0 1 1 1 0 0 1 1 1 1 1 2 1 1 2 1 1 1 0 1 2 2
3 2 2 3 3 3 3 3 3 3 2 1 1 0 0 1 1 0 1 1 0 0 0 0 1 1 1 1 0 1 1 1 1 1 0 0 2 3
4 3 2 2 3 3 2 2 3 3 2 1 1 1 1 1 1 1 1 1 0 0 1 1 1 2 1 0 2 1 0 1 1 1 1 1 2 3
3 3 3 3 3 2 2 2 2 2 2 2 2 1 1 1 1 0 0 0 0 0 0 0 1 1 2 2 1 2 2 1 1 1 2 1 2 4
4 3 3 3 3 2 2 2 2 2 2 2 2 2 1 1 1 1 0 0 1 0 0 1 1 1 1 2 1 1 2 3 1 1 1 1 2 2
3 3 3 3 3 2 2 2 2 2 2 2 2 1 1 0 0 0 0 0 0 0 0 1 1 1 1 1 1 0 2 3 5 6 4 2 0 0
4 4 4 3 3 2 2 2 2 2 2 2 2 1 1 0 0 0 0 0 0 1 1 1 2 2 1 2 1 1 1 2 2 3 4 6 4 3
Wind_Direction
237 243 252 253 243 248 248 232 237 266 269 257 247 239 248 256 258 257 262 258 259 251 241 240 244 249 254 260 266 270 273 276 281 283 280 282 283 282
241 238 252 263 249 240 240 246 237 244 262 256 244 249 249 264 264 259 259 258 254 254 245 242 242 243 250 256 262 270 277 278 278 285 284 285 285 284
270 258 262 265 260 252 242 240 238 238 254 269 255 259 244 246 269 272 267 261 257 256 253 247 242 240 246 251 259 265 270 274 279 285 286 287 286 282
275 273 273 273 271 265 247 240 244 245 244 258 262 252 249 239 249 256 275 275 266 263 261 252 242 240 242 249 260 262 267 275 279 286 290 289 288 286
267 268 271 268 269 268 262 253 250 255 249 246 256 252 256 239 251 268 268 272 280 275 259 249 245 241 242 246 248 254 263 269 274 283 291 291 293 289
280 275 273 267 264 260 259 247 242 249 249 247 250 255 260 244 233 256 287 282 279 290 272 268 257 246 243 245 250 253 256 261 269 277 285 285 291 291
289 281 276 276 275 268 259 243 234 242 250 249 253 259 256 245 248 240 258 301 304 264 280 295 291 270 261 256 254 252 258 269 278 282 283 285 294 297
286 292 290 289 288 288 280 269 246 237 239 249 260 254 255 251 238 225 227 285 287 267 265 297 277 253 275 269 269 262 264 278 285 282 282 291 298 297
288 290 294 302 306 297 297 297 283 269 253 248 253 260 251 238 220 222 222 233 257 250 231 260 257 253 275 274 263 258 273 286 287 289 293 303 302 298
295 287 288 298 302 302 297 297 284 277 265 254 250 258 252 230 211 214 215 229 276 261 201 231 256 262 284 278 252 248 269 285 291 291 296 311 307 300
317 319 309 296 312 312 304 286 290 289 289 269 269 269 262 248 220 197 202 203 257 249 186 184 257 302 283 254 265 264 280 287 297 309 317 321 314 310
329 325 323 324 316 302 287 273 277 285 289 298 287 290 280 259 238 218 207 209 222 241 204 175 220 350 310 279 279 280 282 290 303 305 313 319 321 315
327 326 327 337 329 316 295 275 271 275 269 265 267 269 263 242 222 219 210 208 208 232 205 168 207 212 236 291 291 271 284 316 306 297 305 314 318 327
315 314 323 336 328 325 320 320 312 300 270 256 253 255 247 242 237 228 236 217 222 230 219 195 206 210 210 250 281 297 308 322 333 324 317 316 319 325
317 331 335 337 334 333 341 337 331 306 271 263 248 255 248 234 216 205 70 29 330 271 238 215 201 200 195 206 258 271 294 298 312 315 325 321 312 308
330 334 344 350 355 356 352 349 347 313 278 270 265 275 267 215 210 212 203 131 12 357 10 267 199 183 194 216 222 265 276 263 284 308 326 330 329 315
342 349 1 3 4 359 356 356 349 347 341 336 339 331 318 330 165 161 163 145 110 13 19 32 37 120 177 181 214 254 276 279 264 288 330 331 315 323
12 17 7 357 349 347 348 347 348 350 352 9 360 333 17 62 43 60 131 134 140 182 167 157 117 88 59 35 295 245 283 282 285 297 312 336 311 320
30 20 1 347 342 344 341 338 343 346 348 359 4 359 23 51 74 71 65 50 75 196 218 211 185 161 153 304 332 349 288 312 329 320 319 314 292 305
16 7 354 348 346 344 340 341 346 352 360 7 10 15 35 46 61 36 66 86 51 303 284 257 237 214 198 207 234 330 348 299 280 313 328 332 320 315
356 355 350 345 342 341 339 341 345 352 1 9 11 12 29 47 41 27 42 77 160 197 252 283 279 289 129 104 78 354 353 3 3 323 321 317 327 347
345 345 342 339 339 337 337 342 352 360 4 10 6 1 13 46 53 18 8 249 223 166 305 336 351 38 89 122 139 350 360 10 20 24 16 6 274 340
339 338 337 339 340 341 344 350 358 357 359 1 356 348 350 6 16 39 23 35 122 106 69 40 33 48 80 126 130 85 31 11 12 26 17 19 27 3
Height
1442 1442 1443 1443 1444 1444 1445 1445 1445 1442 1440 1441 1442 1442 1443 1443 1443 1443 1443 1444 1444 1445 1446 1446 1447 1447 1448 1448 1447 1447 1447 1446 1445 1445 1444 1444 1443 1443
1437 1437 1437 1438 1438 1439 1439 1440 1440 1439 1437 1436 1437 1437 1438 1438 1438 1439 1439 1439 1439 1440 1441 1441 1442 1442 1443 1443 1443 1443 1442 1442 1441 1440 1440 1439 1439 1438
1432 1432 1432 1433 1433 1434 1434 1434 1434 1434 1433 1431 1433 1433 1433 1433 1433 1434 1434 1433 1434 1435 1435 1436 1436 1437 1438 1439 1439 1439 1438 1438 1437 1436 1435 1435 1435 1434
1428 1428 1428 1428 1428 1429 1429 1429 1428 1428 1428 1427 1427 1428 1428 1428 1428 1428 1428 1428 1429 1430 1430 1431 1431 1432 1433 1434 1434 1434 1434 1433 1433 1432 1431 1431 1430 1430
1425 1424 1424 1424 1424 1424 1424 1423 1423 1423 1423 1423 1422 1423 1423 1424 1423 1423 1423 1424 1424 1425 1425 1426 1427 1429 1429 1430 1430 1430 1429 1429 1429 1428 1428 1427 1427 1426
1421 1421 1420 1420 1420 1420 1419 1419 1419 1419 1419 1419 1418 1418 1419 1419 1419 1419 1419 1419 1420 1421 1421 1422 1423 1425 1425 1426 1426 1426 1425 1425 1425 1425 1424 1424 1423 1423
1417 1417 1416 1416 1416 1415 1415 1414 1414 1414 1414 1414 1414 1414 1414 1415 1415 1415 1415 1415 1416 1417 1417 1418 1419 1420 1421 1421 1421 1421 1421 1421 1421 1421 1420 1420 1419 1419
1413 1412 1412 1412 1411 1411 1411 1410 1410 1410 1410 1410 1410 1410 1410 1411 1412 1412 1412 1412 1412 1414 1414 1414 1416 1416 1417 1417 1417 1418 1418 1417 1417 1417 1417 1416 1416 1415
1410 1409 1408 1407 1407 1406 1406 1405 1406 1407 1408 1408 1408 1407 1407 1408 1409 1409 1409 1409 1410 1410 1411 1411 1412 1413 1413 1414 1414 1414 1414 1414 1414 1414 1414 1413 1413 1412
1407 1406 1405 1404 1404 1403 1402 1402 1402 1403 1404 1404 1404 1404 1404 1404 1405 1406 1406 1407 1407 1408 1408 1408 1408 1409 1410 1410 1411 1411 1411 1411 1411 1411 1410 1410 1410 1409
1405 1404 1403 1402 1401 1401 1400 1399 1399 1400 1400 1401 1400 1400 1401 1401 1402 1403 1403 1404 1403 1404 1405 1405 1405 1406 1406 1407 1407 1408 1408 1408 1408 1408 1408 1407 1407 1406
1402 1402 1401 1400 1399 1399 1398 1397 1397 1396 1397 1397 1397 1397 1397 1398 1398 1399 1399 1400 1400 1401 1401 1402 1402 1403 1403 1404 1404 1405 1405 1405 1405 1405 1404 1404 1403 1403
1400 1399 1398 1397 1397 1396 1396 1395 1394 1394 1394 1393 1393 1393 1394 1394 1394 1396 1396 1397 1397 1397 1398 1399 1400 1400 1401 1401 1402 1402 1402 1402 1402 1402 1401 1401 1401 1400
1398 1397 1396 1395 1395 1394 1393 1392 1392 1391 1391 1390 1390 1390 1391 1391 1392 1393 1393 1394 1394 1395 1396 1397 1397 1398 1398 1398 1399 1399 1399 1400 1399 1399 1398 1398 1398 1398
1397 1396 1395 1394 1392 1391 1390 1389 1389 1388 1388 1387 1387 1388 1388 1389 1389 1390 1391 1391 1392 1393 1393 1394 1395 1395 1396 1396 1396 1396 1397 1397 1397 1396 1396 1396 1395 1395
1395 1394 1393 1392 1390 1389 1388 1387 1386 1386 1386 1385 1385 1385 1386 1386 1387 1387 1388 1389 1390 1390 1391 1392 1392 1393 1394 1394 1395 1395 1395 1395 1394 1394 1394 1394 1393 1393
1393 1392 1391 1390 1389 1387 1386 1385 1385 1384 1384 1384 1383 1384 1384 1384 1385 1385 1386 1387 1387 1388 1388 1390 1390 1391 1393 1393 1393 1393 1393 1393 1393 1392 1392 1391 1391 1391
1392 1391 1390 1389 1388 1387 1386 1385 1384 1383 1383 1382 1382 1382 1382 1383 1383 1384 1385 1385 1385 1386 1387 1388 1389 1390 1391 1391 1393 1392 1392 1392 1392 1391 1391 1390 1390 1390
1392 1391 1390 1389 1388 1387 1385 1384 1383 1383 1382 1382 1381 1381 1381 1382 1382 1382 1383 1383 1384 1385 1386 1387 1388 1388 1388 1389 1390 1391 1391 1391 1390 1390 1390 1389 1388 1388
1391 1391 1390 1388 1387 1386 1385 1384 1383 1383 1382 1381 1381 1381 1381 1381 1381 1381 1382 1382 1383 1384 1385 1386 1386 1387 1387 1388 1388 1389 1390 1390 1390 1389 1389 1389 1388 1388
1392 1391 1390 1388 1387 1386 1385 1384 1383 1382 1382 1381 1381 1380 1380 1380 1380 1380 1381 1381 1382 1383 1383 1384 1385 1386 1387 1387 1387 1388 1389 1390 1389 1389 1388 1387 1387 1386
1392 1391 1389 1388 1387 1386 1385 1384 1383 1382 1381 1381 1380 1380 1380 1380 1380 1380 1380 1380 1381 1382 1382 1383 1384 1385 1386 1386 1386 1387 1388 1389 1389 1389 1388 1388 1387 1386
1392 1391 1389 1388 1387 1386 1385 1383 1382 1382 1381 1381 1380 1380 1380 1380 1380 1380 1380 1380 1380 1381 1381 1382 1383 1384 1385 1386 1386 1387 1387 1388 1388 1388 1388 1388 1388 1387